St. Cloud, MN

12:58 PM CST on December 06, 2019 (GMT -0600)
Saint Cloud Regional

Weather History for KSTC - November, 2019

Change the Weather History Date:

Thursday, November 14, 2019

  Actual Average Record
Temperature  
Mean Temperature 22 °F 31 °F  
Max Temperature 31 °F 40 °F 68 °F (1990)
Min Temperature 12 °F 23 °F -8 °F (1940)
Degree Days  
Heating Degree Days 44 34  
Month to date heating degree days 580 419  
Since 1 July heating degree days 1431 1304  
Cooling Degree Days 0 0  
Month to date cooling degree days 0 0  
Year to date cooling degree days 452 465  
Moisture  
Dew Point 14 °F    
Average Humidity 70    
Maximum Humidity 85    
Minimum Humidity 53    
Precipitation  
Precipitation 0.00 in 0.04 in 1.37 in (1909)
Month to date precipitation 0.11 0.69  
Year to date precipitation 38.84 26.22  
Sea Level Pressure  
Sea Level Pressure 30.24 in    
Wind  
Wind Speed 7 mph ()    
Max Wind Speed 16 mph    
Max Gust Speed 21 mph    
Visibility 10.0 miles    
Events      
T = Trace of Precipitation, MM = Missing Value Source: Averaged Metar Reports

Daily Weather History Graph

Daily Weather History Graph

Search for Another Location

Airport or City:

Astronomy

Nov. 14, 2019 Rise Set
Actual Time 7:13 AM CST 4:46 PM CST
Civil Twilight 6:41 AM CST 5:19 PM CST
Nautical Twilight 6:05 AM CST 5:54 PM CST
Astronomical Twilight 5:30 AM CST 6:29 PM CST
Moon 6:29 PM CST (11/14) 9:13 AM CST (11/14)
Length of Visible Light 10h 37m
Length of Day
9h 33m
Waning Gibbous, 95% of the Moon is Illuminated
Nov 14
Waning Gibbous
Nov 19
Last Quarter
Nov 26
New
Dec 4
First Quarter
Dec 11
Full

Hourly Weather History & Observations

Time (CST) Temp. Windchill Dew Point Humidity Pressure Visibility Wind Dir Wind Speed Gust Speed Precip Events Conditions
12:53 AM 21.0 °F 11.4 °F 12.0 °F 68% 30.20 in 10.0 mi NW 8.1 mph - N/A   Overcast
1:53 AM 19.0 °F 7.5 °F 10.0 °F 68% 30.22 in 10.0 mi NNW 10.4 mph - N/A   Overcast
2:53 AM 19.0 °F 8.2 °F 10.0 °F 68% 30.24 in 10.0 mi NNW 9.2 mph - N/A   Overcast
3:53 AM 19.0 °F 7.5 °F 10.9 °F 71% 30.25 in 10.0 mi WNW 10.4 mph - N/A   Overcast
4:53 AM 18.0 °F 7.7 °F 10.0 °F 71% 30.26 in 10.0 mi NW 8.1 mph - N/A   Overcast
5:53 AM 15.1 °F 7.7 °F 9.0 °F 77% 30.27 in 10.0 mi West 4.6 mph - N/A   Partly Cloudy
6:53 AM 14.0 °F 2.9 °F 8.1 °F 77% 30.29 in 10.0 mi WNW 8.1 mph - N/A   Clear
7:53 AM 12.9 °F 3.8 °F 8.1 °F 81% 30.29 in 10.0 mi WSW 5.8 mph - N/A   Clear
8:53 AM 17.1 °F 5.0 °F 9.0 °F 71% 30.31 in 10.0 mi West 10.4 mph - N/A   Clear
9:53 AM 19.9 °F 9.3 °F 10.0 °F 65% 30.30 in 10.0 mi West 9.2 mph - N/A   Clear
10:53 AM 21.9 °F 11.0 °F 12.9 °F 68% 30.30 in 10.0 mi WSW 10.4 mph - N/A   Clear
11:53 AM 25.0 °F 13.6 °F 14.0 °F 63% 30.28 in 10.0 mi WSW 12.7 mph - N/A   Clear
12:53 PM 27.0 °F 15.6 °F 15.1 °F 61% 30.26 in 10.0 mi SW 13.8 mph - N/A   Overcast
1:53 PM 28.0 °F 17.5 °F 15.1 °F 58% 30.24 in 10.0 mi SW 12.7 mph - N/A   Overcast
2:53 PM 30.0 °F 19.5 °F 15.1 °F 54% 30.21 in 10.0 mi SW 13.8 mph - N/A   Mostly Cloudy
3:53 PM 30.9 °F 21.2 °F 16.0 °F 54% 30.20 in 10.0 mi SSW 12.7 mph - N/A   Clear
4:53 PM 30.0 °F 23.2 °F 17.1 °F 59% 30.19 in 10.0 mi SSW 6.9 mph - N/A   Clear
5:53 PM 27.0 °F 18.7 °F 17.1 °F 66% 30.19 in 10.0 mi SSW 8.1 mph - N/A   Clear
6:53 PM 28.0 °F 20.8 °F 18.0 °F 66% 30.19 in 10.0 mi SSW 6.9 mph - N/A   Clear
7:53 PM 26.1 °F - 18.0 °F 71% 30.20 in 10.0 mi Calm Calm - N/A   Clear
8:53 PM 21.9 °F - 17.1 °F 82% 30.22 in 10.0 mi Calm Calm - N/A   Scattered Clouds
9:53 PM 21.0 °F - 17.1 °F 85% 30.23 in 10.0 mi Calm Calm - N/A   Clear
10:46 PM 19.9 °F - 16.0 °F 85% 30.16 in 10.0 mi Calm Calm - N/A   Mostly Cloudy
10:53 PM 21.0 °F - 17.1 °F 85% 30.24 in 10.0 mi Calm Calm - N/A   Mostly Cloudy
11:53 PM 24.1 °F - 19.9 °F 84% 30.25 in 10.0 mi Calm Calm - N/A   Overcast